Home   Weather   Carlisle   Past weeks

Flag for United Kingdom Past Weather in Carlisle, England, United Kingdom — Yesterday and Last 2 Weeks

Now
41 °F

Quite cool.


Feels Like: N/A
Forecast: N/A
Wind: N/A

Location: Carlisle

Current Time: Dec 3, 2016 at 10:00:06 pm

Latest Report: Dec 3, 2016 at 9:00 pm


Visibility: 31 mi

Pressure: 30.36 "Hg

Humidity: 69%

Dew Point: 32 °F

Location of CarlisleLocation

Past Weather in Carlisle — Graph

°F

Carlisle Temperature Yesterday

Maximum temperature yesterday: 44 °F (at 2:00 pm)
Minimum temperature yesterday: 36 °F (at 5:00 am)
Average temperature yesterday: 41 °F

High & Low Weather Summary for the Past Weeks

 TemperatureHumidityPressure
High50 °F (Dec 1, 2:00 pm)100% (Nov 19, 5:00 am)30.54 "Hg (Nov 19, 5:00 am)
Low24 °F (Nov 26, 3:00 am)70% (Dec 3, 8:00 pm)29.21 "Hg (Nov 20, 5:00 am)
Average38 °F91%30.12 "Hg
* Reported Nov 18 8:00 pm — Dec 3 8:00 pm, Carlisle, Weather by CustomWeather, © 2016

Note: Actual official high and low records may vary slightly from our data, if they occured in-between our weather recording intervals... More about our weather records

Advertising

Carlisle Weather History for the Previous 24 Hours

Scroll right to see more
 ConditionsComfort  
Time TempWeatherWind HumidityBarometerVisibility
8:00 pm
Sat, Dec 3
42 °FQuite cool.N/A70%30.35 "Hg31 mi
7:00 pm42 °FQuite cool.N/A73%30.35 "Hg31 mi
6:00 pm42 °FQuite cool.N/A74%30.34 "Hg25 mi
5:00 pm43 °FQuite cool.N/A77%30.34 "Hg25 mi
4:00 pm43 °FQuite cool.N/A76%30.34 "Hg31 mi
3:00 pm43 °FQuite cool.N/A83%30.33 "Hg28 mi
2:00 pm44 °FQuite cool.N/A78%30.33 "Hg31 mi
1:00 pm43 °FQuite cool.N/A81%30.34 "Hg31 mi
12:00 pm42 °FQuite cool.N/A87%30.35 "Hg31 mi
11:00 am40 °FQuite cool.N/A87%30.36 "Hg25 mi
10:00 am39 °FChilly.N/A96%30.36 "Hg16 mi
9:00 am37 °FChilly.N/A98%30.35 "Hg11 mi
8:00 am38 °FChilly.N/A97%30.34 "Hg16 mi
7:00 am38 °FChilly.N/A98%30.34 "Hg7 mi
6:00 am39 °FChilly.N/A98%30.34 "Hg9 mi
5:00 am40 °FChilly.N/A99%30.33 "Hg7 mi
4:00 am40 °FQuite cool.N/A99%30.34 "Hg5 mi
3:00 am41 °FQuite cool.N/A99%30.34 "Hg7 mi
1:00 am40 °FChilly.N/A99%30.35 "Hg11 mi
12:00 am39 °FChilly.N/A99%30.35 "Hg13 mi
11:00 pm
Fri, Dec 2
38 °FChilly.N/A98%30.35 "Hg7 mi
10:00 pm38 °FChilly.N/A98%30.35 "Hg3 mi
Weather by CustomWeather, © 2016

See weather overviewHow to use our weather pages